Wind_Speed
13 12 11 9 7 6 6 6 7 6 6 6 7 10 14 15 17 19 21 29 25 27 24 24 24 24 22 18 13 9 8 11 18 22 23 13 17 15 18 16 16 19 18 14 12
18 15 13 12 10 8 7 6 7 7 6 5 6 8 13 16 17 19 28 26 28 29 28 24 22 17 14 10 9 6 6 10 17 22 14 9 12 11 14 13 15 18 17 15 14
22 20 17 15 13 11 9 8 8 8 8 7 7 10 13 17 21 24 18 27 28 29 27 24 21 18 15 11 7 5 6 10 17 24 17 12 11 10 9 12 14 17 15 13 14
23 23 22 19 17 15 12 10 9 9 9 9 9 10 13 16 17 19 23 27 29 31 28 30 26 22 18 13 7 3 6 12 17 18 16 15 12 11 8 11 11 14 12 11 12
26 25 25 23 21 19 16 13 11 11 10 11 12 12 12 14 16 19 23 26 28 29 32 31 29 24 19 15 9 6 4 22 23 18 13 14 16 15 13 9 9 10 11 9 11
30 29 27 26 25 23 20 17 13 13 12 12 13 14 14 13 15 17 21 24 27 29 35 34 30 25 21 16 14 8 7 19 21 24 10 11 17 16 17 11 6 8 8 7 8
17 32 31 28 27 26 24 21 18 15 15 14 15 16 16 16 15 17 19 23 26 30 35 39 35 29 24 21 17 7 11 17 15 21 22 14 12 13 20 16 10 7 6 5 6
12 10 30 32 29 28 28 26 23 19 18 17 17 18 18 18 19 19 19 21 25 27 34 38 39 32 26 20 17 9 17 15 17 14 19 19 15 14 19 24 19 12 6 3 3
14 13 11 26 33 30 30 30 28 25 22 21 21 21 21 24 24 22 22 23 24 29 36 33 34 38 31 21 15 12 13 10 5 10 12 16 17 11 18 20 23 14 9 4 3
16 15 14 12 20 34 32 34 33 31 25 23 25 24 25 24 24 26 26 25 26 28 29 26 28 34 32 25 16 16 15 12 6 4 7 7 14 8 11 15 22 13 10 5 4
17 19 17 15 14 17 36 37 35 33 29 26 26 26 24 25 23 25 27 28 28 25 21 21 23 15 11 15 21 21 17 8 2 6 2 4 9 6 11 11 17 16 12 8 4
16 18 21 20 17 19 16 36 38 34 34 33 30 30 29 27 27 27 27 27 24 21 22 21 17 17 24 26 29 20 15 9 10 13 9 5 3 8 6 6 9 8 13 8 8
21 21 21 23 22 23 22 16 32 37 36 39 36 33 32 31 30 28 27 28 25 25 21 16 26 33 36 34 26 21 14 6 9 19 19 11 9 4 3 4 6 6 5 8 9
25 25 25 27 25 27 29 25 20 26 42 34 39 35 35 33 33 33 30 30 30 27 25 24 40 42 38 34 28 21 14 12 14 18 8 5 1 5 5 3 7 5 11 7 10
30 28 29 29 29 31 30 31 27 22 35 36 39 40 40 37 31 33 33 32 31 30 30 28 36 39 35 27 27 22 16 19 20 16 17 13 14 9 7 5 3 6 9 6 7
33 33 31 31 33 35 33 33 34 30 18 31 37 39 43 38 39 38 38 37 36 37 34 34 37 43 33 28 31 29 29 26 20 11 16 16 19 12 10 6 5 4 6 6 8
41 42 38 36 37 38 36 37 39 37 23 20 35 38 43 42 41 43 43 42 43 42 39 39 40 36 37 39 39 40 39 32 29 24 29 20 21 7 8 11 6 6 3 4 9
45 42 41 39 42 43 42 43 44 41 32 26 29 33 38 44 45 43 45 45 44 43 38 40 42 37 37 34 38 36 43 42 37 31 27 27 23 11 14 15 14 8 4 5 5
51 50 46 45 46 46 47 49 46 44 34 28 28 35 37 42 45 46 49 47 45 44 43 41 41 37 36 33 32 35 37 43 40 38 30 31 27 21 13 16 14 9 9 6 7
57 55 54 51 48 50 50 48 50 47 42 32 35 37 39 40 46 49 51 49 48 46 44 43 40 39 35 36 38 39 32 39 42 38 35 32 33 24 18 22 15 9 10 7 9
65 61 59 55 54 53 50 50 51 50 43 39 39 45 40 45 46 49 55 54 48 42 42 45 46 41 39 41 37 37 36 37 37 35 36 36 33 24 19 14 13 7 13 15 13
73 70 64 62 59 58 54 53 55 53 45 44 46 48 49 49 50 52 56 56 53 49 48 45 46 46 45 42 40 40 39 41 42 40 38 39 30 23 23 22 20 9 14 14 14
73 68 69 66 64 63 62 61 60 58 53 51 51 52 54 55 56 54 54 49 52 52 55 48 49 49 49 47 47 48 43 39 36 39 36 40 34 29 30 28 23 18 13 14 16
69 66 65 68 67 66 68 67 67 65 58 59 58 60 61 62 60 59 56 51 42 44 54 45 48 51 51 48 47 48 46 43 34 34 34 38 30 30 32 32 28 25 24 24 27
66 66 65 68 72 72 72 71 70 68 65 64 64 64 64 66 64 59 57 55 47 42 43 46 52 48 49 43 47 48 47 46 41 39 36 29 24 27 30 34 35 31 34 35 39
67 65 67 65 66 72 70 72 71 71 68 65 68 66 67 68 68 63 55 54 50 50 45 46 52 47 52 48 40 50 51 47 44 43 41 34 25 18 23 34 41 40 37 39 37
52 59 65 68 63 65 68 70 72 72 70 66 69 67 66 67 66 69 58 54 54 53 54 50 49 50 55 47 35 37 51 48 41 40 36 29 23 21 23 26 29 33 35 40 40
Wind_Direction
238 236 241 243 233 230 227 239 237 224 221 220 202 199 196 191 193 175 176 188 175 169 160 149 143 118 113 102 92 86 46 48 47 37 23 14 55 64 75 60 64 60 56 61 67
252 245 240 243 246 240 230 226 236 232 211 205 194 186 187 187 183 184 197 187 180 172 159 149 137 130 105 92 105 94 58 37 41 43 48 38 52 60 78 71 74 70 62 62 67
250 253 249 243 242 243 240 230 224 226 214 192 185 180 182 184 187 196 185 188 185 179 165 155 154 149 143 136 135 112 58 39 50 74 49 45 48 46 63 73 69 76 68 64 77
246 248 250 250 246 243 239 233 226 222 216 191 186 182 182 185 188 175 188 190 188 185 171 159 149 143 145 147 155 81 24 54 51 58 47 55 62 57 40 45 61 75 75 69 72
246 246 247 247 247 245 242 236 229 219 214 202 186 187 190 185 183 186 191 192 191 183 183 176 174 169 158 158 171 183 57 70 64 62 68 79 70 60 57 37 27 57 72 73 80
247 245 244 245 245 243 241 239 232 225 211 207 194 191 187 183 186 184 187 197 196 184 188 188 182 177 168 167 187 179 88 91 70 70 82 88 51 48 43 51 26 31 55 82 86
264 247 245 242 243 243 242 237 233 227 215 207 202 197 191 187 184 184 182 191 203 194 190 191 190 190 181 180 190 174 126 122 87 66 56 54 38 36 37 42 53 42 31 34 82
340 313 248 245 241 241 241 239 233 227 219 209 208 203 193 185 185 187 188 188 200 203 198 204 202 200 190 186 183 263 145 132 79 70 60 48 34 56 55 51 47 57 37 34 46
324 328 335 250 244 241 239 238 236 229 221 213 210 209 201 196 188 185 190 193 195 198 206 213 212 209 211 199 203 228 160 171 102 62 48 40 37 55 76 51 41 56 63 64 70
310 311 317 325 257 244 239 239 234 233 227 219 215 213 212 206 194 190 188 193 197 203 208 215 217 218 222 226 252 199 183 202 198 17 48 28 31 41 56 49 48 44 65 82 99
304 303 302 304 303 269 244 240 238 232 229 228 222 220 219 213 209 203 194 198 199 202 198 196 206 198 214 209 205 193 194 212 283 275 206 334 19 6 14 52 65 39 23 58 86
295 298 299 296 294 293 284 246 241 236 228 223 225 222 214 216 216 214 209 204 200 204 194 190 172 184 204 187 191 182 184 195 234 301 274 223 230 334 20 83 70 54 22 38 68
293 291 292 292 293 285 281 285 247 238 233 229 220 222 218 214 215 219 220 214 199 200 202 184 162 179 183 185 187 181 148 177 260 253 251 211 204 303 138 99 78 57 34 31 62
281 283 285 287 284 283 279 279 277 248 236 228 225 219 221 214 216 217 216 220 210 197 197 180 180 184 192 189 192 178 167 205 227 227 220 233 244 247 280 146 75 64 85 77 72
273 276 277 277 280 276 277 275 275 272 245 229 234 221 223 216 215 219 218 220 218 209 202 186 198 200 204 201 201 169 203 205 217 219 221 243 257 253 227 185 98 49 62 75 16
268 271 275 276 274 273 272 271 269 262 262 227 228 229 227 217 212 214 215 216 217 212 203 189 204 202 211 201 207 182 207 201 218 248 238 240 248 240 221 174 168 141 77 40 16
267 268 267 269 269 271 265 264 262 253 247 244 221 222 224 223 217 215 217 215 218 218 207 195 207 205 208 202 207 202 207 205 214 212 231 243 243 214 238 240 199 157 248 349 6
264 264 266 262 260 262 261 258 257 253 249 244 238 221 224 219 217 217 219 214 217 221 220 210 209 210 212 213 217 222 218 218 219 222 228 237 252 256 250 250 217 189 238 282 341
262 262 264 264 259 258 259 258 255 254 250 237 245 229 224 222 214 217 218 221 219 223 218 218 216 219 218 222 221 228 228 223 225 229 231 230 236 215 213 239 251 245 264 276 288
266 265 263 263 261 254 253 252 255 253 249 230 232 228 217 223 214 212 215 216 217 221 222 221 218 219 221 221 225 226 221 220 226 229 230 216 219 214 224 222 205 246 264 260 282
264 263 263 258 257 254 252 249 250 252 241 229 222 223 216 214 213 211 216 212 212 219 227 226 224 212 217 225 228 233 228 227 227 229 230 224 229 231 239 232 235 278 271 261 273
261 260 256 253 250 252 250 246 244 243 236 228 225 221 217 211 216 215 220 220 211 212 216 224 229 221 219 218 225 232 236 229 224 229 231 237 238 228 242 241 246 238 260 262 277
256 253 250 247 246 244 241 240 240 236 231 227 224 217 216 214 216 220 223 221 217 215 215 214 224 228 219 217 218 224 231 223 224 235 239 240 250 244 244 250 256 257 253 274 277
248 244 241 240 236 235 235 234 235 234 224 224 219 216 213 218 221 219 220 213 202 208 214 210 223 230 227 226 226 222 226 224 214 225 234 237 250 255 242 249 249 256 270 276 282
243 237 232 234 231 227 228 230 231 230 226 222 220 219 214 215 222 226 217 209 208 202 205 212 217 222 228 224 223 226 226 226 219 226 232 233 254 258 256 256 256 256 256 265 270
247 242 234 230 234 230 227 226 227 227 225 218 222 218 215 216 218 220 217 219 214 220 215 219 220 219 225 221 228 223 223 226 228 231 232 231 239 258 258 257 257 257 259 263 272
250 248 240 237 232 233 231 225 224 224 223 218 219 219 217 215 215 216 212 210 216 219 223 230 224 225 225 220 217 220 219 225 227 237 233 228 239 250 251 252 262 262 259 263 270
Height
5894 5895 5896 5896 5896 5897 5897 5898 5898 5898 5898 5899 5900 5901 5902 5905 5907 5909 5911 5911 5914 5917 5919 5922 5921 5921 5922 5922 5922 5923 5923 5921 5921 5920 5923 5921 5919 5919 5918 5918 5916 5915 5913 5913 5913
5891 5892 5894 5894 5894 5895 5896 5896 5897 5897 5897 5898 5899 5899 5901 5903 5905 5908 5907 5909 5913 5916 5919 5920 5922 5922 5922 5922 5922 5924 5923 5922 5922 5922 5925 5923 5922 5922 5921 5921 5919 5918 5917 5917 5916
5887 5888 5890 5891 5892 5894 5894 5895 5895 5896 5896 5897 5898 5898 5899 5901 5903 5903 5907 5909 5913 5916 5918 5920 5922 5922 5922 5922 5923 5924 5923 5922 5924 5926 5927 5926 5925 5925 5924 5922 5921 5919 5921 5920 5920
5884 5885 5886 5888 5889 5891 5892 5893 5894 5894 5895 5897 5897 5898 5898 5900 5902 5904 5905 5908 5911 5915 5918 5920 5921 5922 5923 5925 5925 5925 5924 5924 5927 5927 5928 5929 5929 5928 5928 5926 5924 5921 5922 5923 5922
5880 5881 5882 5884 5886 5888 5889 5890 5891 5892 5894 5895 5896 5897 5898 5899 5901 5902 5904 5906 5911 5916 5918 5920 5921 5923 5924 5926 5924 5922 5922 5926 5928 5926 5929 5932 5932 5930 5927 5928 5927 5925 5924 5924 5924
5874 5875 5878 5880 5882 5883 5886 5888 5889 5890 5892 5893 5895 5896 5897 5899 5900 5901 5904 5906 5909 5914 5917 5920 5921 5922 5923 5925 5923 5923 5923 5929 5930 5931 5933 5934 5933 5930 5929 5929 5930 5927 5926 5926 5926
5868 5870 5872 5875 5877 5879 5881 5883 5886 5888 5890 5891 5893 5894 5896 5898 5899 5900 5903 5905 5908 5912 5915 5917 5918 5921 5923 5925 5922 5925 5926 5929 5932 5933 5935 5934 5935 5934 5933 5931 5931 5930 5929 5929 5929
5865 5864 5866 5868 5871 5874 5876 5879 5881 5884 5887 5889 5890 5891 5894 5896 5897 5899 5901 5904 5906 5910 5912 5912 5916 5920 5922 5924 5924 5927 5925 5930 5931 5933 5935 5937 5938 5937 5936 5934 5932 5932 5932 5931 5930
5864 5862 5861 5862 5865 5868 5870 5872 5876 5879 5882 5885 5887 5889 5891 5891 5893 5897 5899 5901 5903 5906 5908 5910 5916 5918 5921 5924 5923 5926 5927 5929 5931 5933 5935 5937 5938 5938 5937 5937 5934 5933 5934 5934 5933
5861 5860 5860 5859 5858 5860 5863 5865 5869 5874 5880 5883 5884 5887 5888 5890 5892 5892 5895 5899 5901 5902 5905 5909 5914 5917 5920 5923 5926 5926 5925 5929 5930 5933 5934 5935 5938 5938 5937 5937 5937 5936 5935 5935 5934
5859 5857 5857 5856 5856 5854 5856 5859 5867 5871 5875 5879 5881 5884 5887 5889 5891 5892 5893 5896 5898 5900 5904 5908 5911 5915 5921 5923 5925 5925 5926 5925 5929 5930 5930 5933 5937 5938 5937 5937 5937 5938 5937 5935 5936
5855 5855 5853 5853 5853 5851 5849 5854 5857 5864 5868 5870 5874 5878 5881 5885 5888 5889 5891 5894 5897 5902 5903 5906 5910 5916 5918 5919 5923 5924 5925 5928 5930 5930 5929 5930 5933 5938 5937 5938 5938 5938 5938 5937 5935
5850 5850 5850 5848 5849 5848 5845 5847 5849 5855 5859 5862 5866 5871 5875 5880 5883 5887 5890 5892 5895 5898 5902 5906 5911 5912 5915 5917 5920 5923 5925 5928 5930 5930 5927 5926 5929 5935 5936 5938 5938 5937 5938 5938 5936
5845 5844 5844 5843 5845 5842 5841 5843 5844 5844 5849 5859 5860 5866 5869 5874 5878 5881 5885 5890 5891 5896 5899 5903 5904 5906 5909 5913 5917 5920 5924 5925 5925 5924 5925 5925 5926 5931 5933 5935 5936 5936 5936 5937 5936
5837 5837 5837 5837 5836 5836 5838 5837 5839 5839 5839 5851 5852 5858 5861 5868 5875 5878 5881 5884 5889 5892 5895 5901 5901 5902 5906 5912 5915 5921 5922 5922 5921 5922 5921 5923 5924 5929 5929 5932 5934 5935 5936 5936 5936
5828 5827 5829 5829 5829 5828 5829 5831 5831 5833 5833 5837 5842 5848 5854 5861 5864 5867 5871 5876 5882 5884 5889 5895 5896 5899 5906 5912 5913 5919 5916 5917 5916 5914 5914 5920 5922 5923 5926 5930 5931 5934 5935 5935 5935
5816 5816 5819 5820 5819 5818 5821 5822 5823 5821 5830 5832 5831 5835 5843 5853 5856 5858 5862 5867 5871 5876 5881 5887 5889 5897 5900 5903 5904 5908 5911 5912 5912 5910 5912 5917 5918 5920 5923 5926 5930 5930 5931 5933 5932
5803 5804 5806 5808 5807 5806 5808 5810 5810 5812 5822 5827 5826 5829 5833 5841 5845 5852 5855 5860 5864 5871 5880 5882 5884 5889 5893 5897 5902 5904 5907 5907 5907 5908 5912 5913 5911 5917 5919 5921 5923 5926 5928 5929 5928
5787 5789 5792 5794 5794 5794 5796 5796 5799 5804 5815 5819 5820 5821 5825 5828 5835 5841 5847 5854 5859 5865 5872 5875 5880 5885 5890 5896 5898 5899 5900 5905 5903 5905 5906 5908 5911 5914 5916 5918 5921 5921 5924 5925 5925
5769 5772 5775 5778 5780 5779 5782 5786 5787 5794 5803 5809 5810 5812 5818 5820 5823 5826 5833 5844 5850 5856 5864 5870 5875 5879 5885 5888 5890 5892 5898 5898 5896 5898 5899 5902 5903 5908 5912 5913 5915 5916 5919 5919 5919
5748 5752 5754 5758 5761 5764 5767 5771 5775 5780 5791 5798 5801 5803 5809 5811 5814 5817 5822 5833 5841 5850 5856 5862 5865 5874 5875 5876 5882 5885 5888 5890 5893 5894 5894 5897 5898 5904 5907 5908 5908 5911 5913 5914 5915
5723 5728 5733 5736 5742 5746 5753 5756 5760 5764 5777 5783 5789 5792 5797 5803 5804 5810 5817 5824 5832 5835 5838 5849 5857 5862 5866 5870 5875 5878 5882 5884 5883 5887 5890 5891 5894 5899 5900 5902 5903 5905 5908 5909 5909
5695 5700 5705 5712 5719 5725 5731 5738 5742 5748 5758 5767 5774 5781 5785 5791 5797 5802 5810 5818 5823 5826 5830 5837 5838 5846 5855 5859 5861 5865 5872 5876 5877 5882 5882 5886 5890 5896 5894 5896 5898 5900 5902 5902 5902
5666 5673 5679 5685 5693 5701 5708 5716 5722 5730 5738 5745 5755 5763 5769 5775 5783 5792 5801 5809 5812 5818 5824 5827 5830 5832 5842 5855 5858 5857 5864 5869 5871 5872 5876 5877 5884 5887 5889 5890 5892 5894 5896 5897 5899
5637 5646 5655 5660 5667 5675 5685 5695 5702 5711 5720 5728 5736 5747 5756 5762 5770 5777 5790 5798 5804 5810 5814 5815 5816 5824 5833 5844 5848 5852 5856 5862 5864 5867 5868 5875 5877 5882 5884 5886 5888 5890 5892 5893 5894
5614 5622 5631 5642 5643 5653 5662 5670 5680 5690 5702 5714 5720 5732 5744 5752 5759 5770 5784 5790 5793 5800 5805 5809 5810 5817 5822 5831 5836 5841 5848 5854 5858 5860 5862 5867 5870 5877 5879 5880 5881 5884 5886 5888 5889
5590 5599 5607 5617 5627 5633 5638 5649 5658 5671 5682 5698 5706 5718 5732 5743 5750 5759 5770 5780 5786 5788 5792 5799 5803 5808 5812 5823 5828 5825 5837 5845 5851 5854 5859 5859 5866 5871 5873 5874 5875 5876 5879 5883 5885